THORAD AGENA D DEB, 4752

Orbit data source: Space-Track

THORAD AGENA D DEB, 4752 is space debris in SSO originally from a launch on Wed, 08 Apr 1970 UTC launched from the Air Force Western Test Range (AFWTR). Debris objects in space refer to the collection of defunct objects orbiting the Earth. Examples of debris include non-operational satellites, rocket bodies, and fragments generated from explosions, collisions, or faulty payload assembly.

Loading next visibility...
Identifier
4752, 1970-025DA
Orbit
SSO
Country
Flag of USUS
Related business
Manufacturer
Unknown
Mission
Spacecraft
Bus & Motor
Unknown
Mass
Unknown
Launch date (UTC)
1970-04-08 (56 years ago)
Launch vehicle
Unknown
Launch site
Air Force Western Test Range (AFWTR)
Object type
Payload
Rocket body
Debris
Shape & HBR
Unknown shape, 0.2 m
Radar Cross Section
Medium (>0.1 m² and <1 m²)

Expand to show TLE details & history
Last TLE update: 19 hours ago

TLE from 19 hours ago
0 THORAD AGENA D DEB
1 04752U 70025DA  26168.93025929  .00003637  00000-0  18177-2 0  9999
2 04752  99.8855 315.0014 0020947  88.5936 271.7635 14.17399435834180
Epoch: 2026-06-17T22:19Z
TLE epoch observation values (Epoch: 2026-06-17T22:19:34.402Z)
Latitude
0.00001°
Longitude
73.92718°
Altitude
836.599 km
Speed
7.435 km/s
True Right ascension
21h 00m 00s
True Declination
0° 00' 00"
Sunlit
Object was in full shadow at epoch
Visualization orbit readout
Latitude
Unknown
Longitude
Unknown
Altitude
Unknown
Speed
Unknown
Apparent Right ascension
Unknown
Apparent Declination
Unknown
Sunlit
N/A
Visualization observer readout
Local Sidereal Time
04:25:38
Azimuth
Unknown
Elevation
Unknown
Doppler factor
Unknown
Orbital elements
Apogee altitude
846.485 km
Perigee altitude
816.281 km
Semi-major axis
7,209.52 km
Eccentricity
0.00209
Inclination
99.8855°
RAAN
315.0014°
Arg. of periapsis
88.5936°
True anomaly
271.52356°
Mean anomaly
271.7635°
Eccentric anomaly
271.64353°
Mean motion
3.54555 °/min
Orbital period
101.54 mins
BSTAR
0.0018177
Loading maneuver chart data...
Computing Atmospheric mass density...

Documentation

Showing up to 5 results
|